Location: *
(58.7167°N, 26.1833°E)
Time: 09:08:36
(UTC+00:00)

Cosmos 1867 - Pass Details

Date: 25 August 2019
Orbit: 775 x 801 km, 65.0° (Epoch: 17 September)

Event Time Altitude Azimuth Distance (km) Brightness Sun altitude
Rises 18:14:35 0° 303° (WNW) 3,320 9.8 -5.3°
Reaches altitude 10° 18:17:02 10° 306° (NW) 2,388 8.0 -5.5°
Maximum altitude 18:22:33 76° 32° (NNE) 833 3.7 -6.1°
Drops below altitude 10° 18:28:02 10° 118° (ESE) 2,373 5.4 -6.7°
Enters shadow 18:28:26 - 119° (ESE) 2,526 5.5 -6.8°
